Location: Wanzleben
(52.0609°N, 11.4408°E)
Time: 07:01:56
(UTC+00:00)

Cosmos 1943 - Pass Details

Date: 18 September 2020
Orbit: 833 x 850 km, 71.0° (Epoch: 19 October)

Event Time Altitude Azimuth Distance (km) Brightness Sun altitude
Rises 18:00:58 0° 328° (NNW) 3,401 7.1 -6.9°
Reaches altitude 10° 18:03:25 10° 326° (NW) 2,465 6.4 -7.3°
Maximum altitude 18:09:03 71° 244° (WSW) 893 3.5 -8.1°
Drops below altitude 10° 18:14:40 10° 161° (SSE) 2,460 5.3 -9.0°
Sets 18:17:06 0° 160° (SSE) 3,394 6.0 -9.3°
